TimeEST,TemperatureF,Dew PointF,Humidity,Sea Level PressureIn,VisibilityMPH,Wind Direction,Wind SpeedMPH,Gust SpeedMPH,PrecipitationIn,Events,Conditions,WindDirDegrees,DateUTC
12:56 AM,51.1,50.0,96,30.19,3.0,North,19.6,28.8,0.18,Rain,Heavy Rain,10,2012-12-13 05:56:00
1:09 AM,51.8,50.0,94,30.18,5.0,North,19.6,26.5,0.06,Rain,Rain,10,2012-12-13 06:09:00
1:13 AM,51.8,51.8,100,30.18,5.0,North,18.4,26.5,0.07,Rain,Rain,10,2012-12-13 06:13:00
1:56 AM,51.1,50.0,96,30.19,5.0,NNE,23.0,34.5,0.20,Rain,Rain,20,2012-12-13 06:56:00
2:18 AM,51.8,50.0,94,30.20,6.0,NNE,20.7,29.9,0.04,Rain,Rain,20,2012-12-13 07:18:00
2:56 AM,51.1,50.0,96,30.20,5.0,North,21.9,31.1,0.13,Rain,Rain,10,2012-12-13 07:56:00
3:11 AM,51.8,50.0,94,30.18,8.0,NNE,21.9,33.4,0.01,Rain,Light Rain,20,2012-12-13 08:11:00
3:35 AM,51.8,50.0,94,30.19,10.0,North,17.3,32.2,0.02,Rain,Light Rain,10,2012-12-13 08:35:00
3:56 AM,50.0,48.9,96,30.19,6.0,NNE,18.4,31.1,0.04,Rain,Rain,20,2012-12-13 08:56:00
4:56 AM,51.1,48.9,92,30.15,5.0,NNE,26.5,38.0,0.07,Rain,Light Rain,30,2012-12-13 09:56:00
5:11 AM,51.8,50.0,94,30.14,7.0,NE,26.5,35.7,0.01,Rain,Light Rain,40,2012-12-13 10:11:00
5:56 AM,52.0,50.0,93,30.14,5.0,NE,26.5,34.5,0.10,Rain,Rain,40,2012-12-13 10:56:00
6:17 AM,51.8,50.0,94,30.16,4.0,NNE,24.2,32.2,0.04,Rain,Rain,30,2012-12-13 11:17:00
6:56 AM,52.0,51.1,97,30.19,10.0,NNE,19.6,27.6,0.06,,Overcast,20,2012-12-13 11:56:00
7:56 AM,53.1,51.1,93,30.21,10.0,North,18.4,26.5,N/A,,Overcast,10,2012-12-13 12:56:00
8:56 AM,51.1,48.9,92,30.25,9.0,NNW,15.0,-,N/A,,Overcast,340,2012-12-13 13:56:00
9:56 AM,50.0,46.9,89,30.25,7.0,North,18.4,25.3,N/A,,Overcast,350,2012-12-13 14:56:00
10:20 AM,50.0,46.4,87,30.24,8.0,North,18.4,-,N/A,,Overcast,350,2012-12-13 15:20:00
10:56 AM,50.0,46.0,86,30.27,7.0,NNW,18.4,26.5,N/A,,Overcast,340,2012-12-13 15:56:00
11:04 AM,50.0,46.4,87,30.26,7.0,North,18.4,-,N/A,,Overcast,350,2012-12-13 16:04:00
11:36 AM,50.0,46.4,87,30.25,9.0,North,16.1,26.5,N/A,,Overcast,350,2012-12-13 16:36:00
11:56 AM,50.0,46.9,89,30.26,9.0,North,20.7,26.5,N/A,,Overcast,350,2012-12-13 16:56:00
12:04 PM,50.0,46.4,87,30.24,9.0,North,16.1,25.3,N/A,,Overcast,350,2012-12-13 17:04:00
12:56 PM,51.1,46.9,86,30.25,9.0,North,20.7,-,N/A,,Overcast,350,2012-12-13 17:56:00
1:56 PM,53.1,48.0,83,30.24,10.0,North,19.6,27.6,0.00,,Overcast,350,2012-12-13 18:56:00
2:56 PM,54.0,48.0,80,30.24,10.0,North,20.7,25.3,N/A,,Mostly Cloudy,360,2012-12-13 19:56:00
3:56 PM,54.0,46.9,77,30.25,10.0,North,20.7,27.6,N/A,,Scattered Clouds,360,2012-12-13 20:56:00
4:56 PM,53.1,46.0,77,30.26,10.0,North,16.1,-,N/A,,Mostly Cloudy,10,2012-12-13 21:56:00
6:32 PM,51.8,44.6,76,30.27,10.0,North,16.1,23.0,N/A,,Scattered Clouds,10,2012-12-13 23:32:00
6:56 PM,51.1,44.1,77,30.29,10.0,North,18.4,23.0,N/A,,Partly Cloudy,10,2012-12-13 23:56:00
7:56 PM,50.0,44.1,80,30.30,10.0,North,16.1,21.9,N/A,,Clear,10,2012-12-14 00:56:00
8:56 PM,50.0,44.1,80,30.30,10.0,North,16.1,25.3,N/A,,Clear,10,2012-12-14 01:56:00
9:56 PM,50.0,44.1,80,30.30,10.0,North,16.1,24.2,N/A,,Clear,10,2012-12-14 02:56:00
10:56 PM,48.9,44.1,83,30.30,10.0,North,17.3,26.5,N/A,,Clear,10,2012-12-14 03:56:00
11:56 PM,48.9,44.1,83,30.30,10.0,North,13.8,-,N/A,,Clear,360,2012-12-14 04:56:00